Theta_e
305 295 292 291 295 297 299 299 299 300 299 297 298 296 294 294 295 298 296 298 298 296 294 295 296 296 298 297 296 296 297 296 296 296 295 295 295 295 294 295 295 295 294 296 296 296 297 298 298 299 300 300 301 302 303 303 304 305 304 304 303 303 304 304 302 301 300 298 296 295 294 293 293 293 293 293 293 293 293 294 294 294 294 294 295 295
303 294 295 298 299 300 300 301 300 299 299 297 296 294 292 296 293 297 297 296 298 295 293 295 295 296 298 299 297 296 295 294 296 295 295 295 295 295 294 294 294 294 294 295 295 296 296 296 297 298 298 299 298 299 300 300 302 302 303 302 302 301 301 301 299 297 296 295 293 292 291 291 291 291 291 290 291 292 293 292 292 292 293 293 293 294
294 292 297 300 302 302 301 300 299 298 297 297 294 293 292 293 297 299 296 297 297 295 292 294 294 295 298 299 297 295 295 296 297 297 296 296 294 294 295 294 294 293 293 294 294 295 295 296 297 297 297 297 297 298 299 300 300 301 301 300 300 299 298 297 296 295 294 294 294 292 291 291 290 291 291 291 291 291 291 291 292 292 292 292 292 292
291 295 299 302 302 300 298 299 298 299 298 294 293 290 289 295 294 290 293 296 295 294 292 293 293 295 298 299 299 296 296 296 298 298 298 297 295 294 295 295 294 293 293 292 293 294 295 295 295 296 296 296 298 297 297 298 299 300 300 299 298 296 295 294 294 294 293 293 292 292 291 291 290 289 290 290 290 290 290 290 291 291 291 291 291 292
295 300 303 302 301 299 297 297 296 294 292 295 295 293 292 294 295 294 293 294 295 295 295 293 291 292 295 295 297 294 295 293 293 294 294 294 296 296 296 295 295 294 293 292 293 293 294 294 295 295 296 297 296 295 295 296 298 299 298 297 296 295 294 294 293 293 292 292 291 291 291 291 290 290 289 289 288 289 289 289 289 290 290 291 290 291
297 301 303 300 299 298 298 295 295 295 290 292 296 295 296 297 295 296 297 295 291 290 294 292 284 285 294 295 296 291 290 291 292 291 291 292 294 293 293 293 294 295 294 293 292 293 293 293 294 295 296 295 294 294 294 295 296 296 297 297 296 295 294 293 293 293 293 291 291 290 289 288 287 286 286 286 286 287 287 288 288 289 290 290 289 289
298 301 301 299 298 297 297 295 297 297 292 291 293 299 298 296 296 296 294 293 285 283 292 295 284 284 292 293 292 290 290 291 291 291 292 292 293 292 292 293 293 293 293 293 293 293 293 293 294 294 294 293 292 292 293 293 294 295 295 295 295 294 294 296 294 294 294 292 291 290 289 288 287 286 287 287 287 287 287 288 288 288 288 289 288 288
298 296 297 299 298 296 294 293 298 297 292 289 296 299 298 297 296 295 295 293 290 294 295 293 291 284 286 292 291 291 290 290 290 290 291 292 292 292 292 293 292 292 292 292 292 292 293 293 293 292 293 291 291 291 292 292 293 293 293 293 293 292 292 293 293 293 292 291 290 289 289 289 288 287 287 288 288 288 288 287 287 287 288 288 288 288
298 295 297 296 295 293 294 297 299 299 294 294 296 299 296 297 297 296 294 290 289 287 284 287 292 284 283 290 294 292 289 290 290 289 290 291 292 292 292 293 292 292 292 292 291 292 292 292 291 290 290 290 291 291 291 291 291 292 292 291 291 291 291 291 292 292 291 291 290 289 289 288 288 288 288 288 289 288 288 287 287 286 286 287 288 288
299 297 299 300 296 293 297 295 299 300 294 296 298 297 297 297 295 296 289 289 287 286 283 286 290 284 285 290 289 291 289 290 291 291 291 292 291 291 292 292 292 292 292 292 292 291 291 290 290 290 289 289 289 290 291 290 290 291 290 290 290 290 290 291 291 291 290 290 290 289 288 288 288 288 288 288 287 287 287 286 286 286 286 285 286 286
298 296 298 299 297 299 294 294 295 298 297 298 298 296 293 293 290 289 289 287 285 282 285 290 291 288 282 288 289 288 289 293 294 291 292 292 291 292 292 292 292 292 292 291 291 290 290 289 289 289 288 288 288 288 289 289 289 289 289 289 289 289 290 290 290 290 290 290 290 289 289 288 288 288 288 287 287 287 286 286 286 285 285 285 285 285
296 297 297 298 299 297 297 293 295 296 297 297 293 289 291 287 287 286 285 286 280 281 284 290 291 291 281 283 293 294 294 295 295 291 291 291 291 291 292 292 292 291 291 290 290 288 288 287 287 287 287 287 288 288 289 288 289 289 288 288 288 289 289 290 290 291 291 290 290 289 289 289 289 289 288 287 286 286 286 286 285 285 285 285 285 284
291 292 297 297 299 298 295 293 292 294 294 295 291 289 284 282 281 279 282 279 280 280 281 284 290 286 286 290 293 293 293 295 295 294 292 291 291 292 292 291 291 291 290 289 289 287 287 287 287 286 286 286 287 287 288 288 288 288 288 288 288 288 288 289 290 290 290 290 290 290 289 289 289 289 288 287 287 286 286 285 285 284 284 283 283 283
290 295 296 296 296 298 298 291 286 285 288 291 289 286 283 281 279 276 278 281 281 282 282 284 287 283 286 290 297 298 294 293 294 295 294 293 292 292 292 291 291 290 289 289 288 287 287 287 287 287 286 286 287 287 287 287 287 287 288 287 287 287 288 289 289 289 289 289 289 289 289 289 289 288 288 287 287 286 286 286 285 284 284 283 283 283
283 284 291 293 288 298 297 297 295 291 289 291 294 291 287 285 281 278 280 279 280 280 281 284 282 280 281 286 288 290 290 291 291 293 294 293 293 292 292 291 290 289 289 289 288 288 287 287 287 287 286 286 286 286 287 287 287 287 287 287 287 287 287 288 288 288 288 288 288 288 288 288 288 288 287 287 287 286 285 285 285 284 284 283 283 282
289 290 296 298 296 297 295 299 300 294 290 290 293 294 288 286 287 285 283 281 279 280 278 278 281 283 287 290 290 290 289 290 291 292 293 292 292 291 290 290 289 289 289 289 288 287 287 287 287 286 286 286 286 286 286 286 286 286 286 286 286 287 287 287 287 287 288 288 288 287 287 287 287 287 286 286 286 285 285 285 284 284 283 284 283 283
289 287 294 295 296 295 296 298 298 298 284 288 291 286 290 294 292 286 281 282 280 279 279 282 281 284 290 289 288 289 288 288 289 291 291 291 291 291 290 289 289 289 289 289 288 288 287 286 286 286 286 286 285 285 286 286 286 286 286 286 286 286 286 286 287 287 287 287 286 286 286 286 285 285 284 285 284 285 285 284 284 283 283 283 283 284
288 290 291 292 291 294 292 295 299 297 298 291 284 289 294 295 292 286 282 281 279 278 280 282 280 280 282 283 287 286 286 286 288 288 291 291 290 289 290 289 290 290 290 289 289 288 287 287 287 286 286 286 285 285 285 286 286 286 286 286 286 285 285 286 286 286 286 286 285 285 285 285 285 285 284 284 284 284 284 283 283 283 282 282 283 283
298 288 289 293 293 292 295 296 295 297 295 291 289 296 290 282 282 285 283 279 276 277 278 279 282 283 285 286 284 285 286 287 288 288 289 290 289 290 290 290 290 289 289 289 288 288 287 287 287 287 286 286 285 286 285 286 286 285 284 285 285 285 285 285 286 286 286 286 287 286 285 284 284 284 284 284 284 283 282 282 282 281 281 281 281 281
296 288 286 289 291 292 292 292 285 287 293 294 294 290 294 287 283 283 286 282 282 279 277 280 281 282 287 289 288 290 290 289 288 288 289 290 291 291 290 290 290 289 289 289 289 288 288 287 287 286 286 285 285 285 284 285 285 284 285 285 285 285 285 285 285 285 285 285 286 285 284 284 284 284 284 283 283 282 281 281 281 280 279 280 280 279
291 293 285 285 291 291 283 288 288 290 287 285 285 284 288 286 288 286 286 285 281 278 278 279 279 282 288 292 292 292 292 291 289 289 290 291 291 291 291 291 290 290 289 289 289 289 288 287 286 286 285 284 284 284 284 285 284 284 285 284 285 285 284 284 284 285 285 285 284 283 283 283 283 283 283 282 282 281 281 281 281 279 279 279 278 278
290 288 287 283 283 284 287 293 293 294 293 291 289 287 290 287 284 282 282 287 285 283 279 279 280 282 291 291 293 294 294 293 292 291 291 291 291 292 292 291 291 290 290 290 289 289 288 287 286 285 285 284 284 284 283 284 284 283 284 284 284 284 284 283 284 284 284 284 283 283 283 283 282 282 282 281 281 280 280 279 279 279 278 277 277 277
296 290 289 284 284 287 291 292 294 293 293 293 292 289 292 290 287 284 281 283 285 285 283 281 278 284 290 290 290 290 292 293 293 292 291 292 292 292 293 292 291 291 290 290 290 289 288 287 286 285 285 284 283 283 283 283 283 283 283 283 283 283 283 283 283 284 283 283 283 282 282 282 282 282 281 280 279 279 279 278 278 278 277 277 277 276
294 287 287 288 289 289 290 293 293 293 294 289 289 290 290 288 290 288 286 283 283 283 281 280 279 283 288 289 288 288 289 289 292 293 292 292 292 292 292 292 291 291 290 290 290 289 288 286 285 285 284 283 283 283 283 283 283 283 283 283 283 283 283 283 283 283 283 283 282 282 282 281 281 281 280 279 278 278 277 277 277 277 277 276 276 276
289 288 288 285 284 283 284 287 287 289 289 285 286 290 292 292 291 289 287 286 283 285 283 282 279 283 288 286 287 288 287 289 291 293 292 291 291 292 292 292 292 291 290 289 289 288 286 285 285 285 284 284 283 283 283 282 283 283 283 283 283 283 283 283 283 283 283 282 282 282 281 281 281 280 279 278 277 277 276 276 276 276 275 275 275 275
293 289 288 284 281 280 278 278 280 282 285 287 286 289 291 291 289 287 285 286 282 286 285 284 284 288 288 289 289 288 288 289 290 291 291 292 292 291 291 291 291 291 290 289 288 287 286 286 286 285 284 284 283 283 283 283 283 283 283 283 283 283 283 283 283 283 282 282 282 281 281 280 280 279 278 277 276 276 276 275 275 275 274 274 274 273
287 289 290 290 287 286 287 285 288 289 284 284 286 288 289 290 291 290 288 285 284 286 284 288 288 286 285 288 287 288 288 288 288 289 290 291 290 291 291 292 291 291 290 289 288 287 286 285 285 285 284 284 283 283 283 283 282 282 283 282 283 283 283 283 283 282 282 282 281 281 280 280 279 279 278 277 276 275 275 275 275 274 273 273 273 272
287 288 289 290 289 290 290 286 290 290 287 287 286 286 288 288 289 288 286 285 288 284 283 289 288 287 288 288 289 288 288 287 289 289 289 289 292 293 292 290 291 289 288 287 286 286 286 286 286 285 284 284 283 283 283 283 283 283 282 282 283 283 283 283 282 282 282 281 281 281 281 280 279 278 278 276 276 275 276 275 274 273 273 273 272 272
287 287 291 290 289 291 292 290 290 290 289 288 288 287 286 288 288 287 287 289 287 286 285 287 289 288 290 290 291 291 292 291 292 291 291 291 291 290 289 289 289 289 288 287 288 287 287 286 286 285 285 284 283 283 282 282 282 282 282 282 283 283 283 283 282 282 281 281 280 280 280 280 279 278 277 276 275 275 274 274 273 273 272 272 272 273
288 288 289 289 289 290 291 291 289 288 287 287 287 288 288 288 288 288 289 290 289 288 290 289 288 289 291 291 292 293 294 293 292 291 291 290 290 290 289 289 289 289 288 288 289 289 288 287 287 286 285 284 283 283 282 282 282 282 282 283 284 284 284 283 282 281 281 280 280 281 280 280 279 278 277 276 276 275 274 273 272 272 271 271 270 270
290 288 291 288 287 287 289 290 289 287 286 286 287 287 289 288 288 289 289 289 289 289 290 290 288 288 293 294 293 292 291 291 290 290 290 290 290 289 289 289 289 290 290 290 289 289 288 288 287 286 285 285 284 283 283 283 283 282 283 283 283 283 284 283 282 281 281 280 280 280 279 279 277 276 276 276 275 274 273 272 271 270 270 269 268 269
289 285 286 287 285 285 288 287 288 286 285 285 286 286 286 286 285 288 287 289 288 287 288 288 287 287 290 291 289 290 290 291 290 290 290 290 289 289 289 289 289 289 290 290 289 289 288 288 288 287 286 285 285 284 283 283 283 283 283 283 283 283 284 283 282 281 281 280 280 280 279 278 277 277 276 275 274 273 272 271 270 270 269 268 268 268
287 286 285 285 283 284 286 287 286 285 284 283 284 287 288 287 289 290 290 290 290 291 287 286 287 291 291 291 289 288 288 289 289 289 288 288 289 289 289 289 289 290 290 289 289 289 290 289 289 288 287 286 285 284 284 284 284 283 284 283 284 283 283 282 281 281 281 281 281 280 280 279 278 277 275 274 273 271 270 270 270 269 268 268 268 267
286 286 286 287 282 284 282 285 285 283 277 280 288 291 292 288 289 287 288 289 290 291 290 292 290 289 289 290 291 289 287 288 290 292 290 292 290 288 289 289 289 290 290 289 290 290 290 289 289 288 287 287 286 285 285 285 285 285 284 284 283 282 282 281 281 281 281 281 281 281 279 278 277 276 275 273 271 270 269 269 269 268 268 268 268 268
286 286 286 286 284 280 282 284 281 276 280 286 283 284 287 293 292 289 290 290 290 291 291 290 288 288 290 291 292 292 291 290 290 290 289 289 290 290 290 289 289 288 289 289 289 288 288 289 289 288 287 287 286 286 285 285 285 284 283 283 282 282 281 281 281 281 281 281 280 279 279 278 276 275 273 272 270 269 269 268 268 268 268 268 268 267
286 285 286 284 284 282 279 282 276 278 283 283 282 281 284 287 289 289 288 289 290 290 290 289 290 289 290 290 290 290 290 289 288 287 287 288 290 291 290 289 289 289 288 288 288 288 288 288 289 288 288 288 287 286 286 285 285 284 284 283 282 282 281 281 281 281 281 280 279 278 278 277 275 274 272 271 270 269 269 268 268 268 268 267 267 266
289 287 287 283 286 278 280 281 282 285 284 281 281 282 283 284 286 287 284 288 292 292 290 289 290 289 288 288 286 283 284 286 287 287 285 287 288 289 290 289 289 288 288 288 288 288 288 288 288 287 287 287 287 286 285 285 285 284 283 282 282 282 281 281 280 280 281 280 279 279 278 277 275 273 272 270 269 268 268 268 267 267 267 266 268 267
288 286 286 284 282 283 279 278 278 279 278 282 281 285 285 284 290 291 288 284 288 290 291 291 291 290 288 285 284 283 285 285 283 286 288 286 287 288 286 287 287 287 287 286 286 286 286 286 286 286 287 286 285 285 285 285 284 284 282 282 282 281 280 280 280 281 281 280 279 279 278 277 275 274 272 270 270 269 269 269 268 267 267 267 266 267
285 285 285 285 283 281 280 278 278 277 279 281 280 281 283 285 288 287 284 280 285 286 289 290 291 289 288 284 282 284 285 282 284 287 286 286 286 286 285 284 284 284 284 285 285 285 284 285 286 285 285 285 284 284 284 284 284 283 282 282 281 281 280 280 281 281 281 280 280 279 277 276 275 274 272 271 271 270 269 269 268 267 266 266 265 265
283 283 284 282 281 282 280 279 277 281 279 281 279 281 281 282 288 286 276 277 286 284 285 288 289 288 286 286 284 285 285 283 285 286 282 283 285 286 285 283 282 282 282 282 282 282 282 283 283 283 283 284 284 283 283 283 283 282 282 281 281 280 280 281 281 281 281 281 279 278 276 275 275 274 273 272 270 269 269 268 266 266 266 265 265 264
280 280 283 279 282 282 282 280 281 281 284 282 280 280 281 283 287 279 275 283 283 282 281 287 287 286 286 284 285 285 286 285 284 281 280 282 283 282 282 281 281 281 281 281 282 283 282 282 283 283 283 282 282 282 282 282 282 282 281 280 280 280 281 281 281 281 281 279 278 276 275 275 274 274 273 272 270 269 268 267 267 265 264 264 263 263
280 281 281 282 280 280 282 279 280 282 285 282 280 282 281 285 277 277 283 280 282 281 283 285 285 285 285 285 285 286 282 279 280 280 280 280 281 280 280 281 280 280 279 281 281 281 281 280 280 281 281 281 282 282 282 282 282 281 280 280 280 281 282 281 280 280 278 278 277 276 275 274 273 272 271 269 268 267 266 265 265 264 263 263 262 262
281 279 277 279 281 281 280 279 278 275 283 281 282 282 284 281 283 283 280 280 282 282 283 285 285 285 285 284 284 281 279 279 279 279 279 279 279 279 279 279 279 279 280 279 280 280 280 280 280 280 280 280 280 280 281 281 281 280 280 279 281 282 281 279 278 278 278 277 276 275 274 272 271 270 269 267 267 267 265 264 263 262 262 262 261 261
286 278 278 280 284 277 279 276 278 284 281 283 286 282 282 285 284 282 283 280 281 281 282 282 283 284 284 284 283 279 279 279 278 278 278 278 278 278 278 279 278 278 278 279 279 280 279 279 279 279 278 278 279 279 280 281 280 279 279 280 282 278 276 277 277 277 276 276 275 273 271 270 268 267 266 266 265 265 264 262 261 261 261 261 261 260
286 282 284 280 286 282 281 282 281 282 284 283 282 282 285 285 283 283 283 282 280 280 281 281 281 280 282 282 281 279 279 278 278 279 278 278 278 278 278 278 279 279 278 279 279 279 279 280 279 278 276 276 276 277 278 279 279 278 278 280 278 278 277 277 276 276 275 274 273 271 269 267 266 265 264 264 265 264 263 261 260 260 260 260 260 260
281 284 282 282 283 284 282 283 282 281 283 281 281 283 283 281 281 281 282 281 282 280 281 280 279 279 279 279 281 279 279 278 279 279 278 278 278 278 278 278 278 278 278 278 278 278 277 277 277 276 275 274 274 275 275 276 277 278 279 277 275 276 275 275 274 274 274 273 271 269 267 265 263 262 262 262 263 264 263 262 261 261 261 260 260 261
281 281 282 280 282 283 279 280 281 282 282 281 281 282 280 280 281 280 281 282 281 281 280 278 279 280 280 280 280 280 279 278 278 278 278 278 278 278 278 278 278 279 279 279 279 278 277 275 276 276 274 274 272 273 273 274 275 278 276 272 274 274 274 273 274 273 271 271 269 266 266 265 264 262 261 261 261 262 262 262 261 262 262 261 261 261
279 282 281 281 281 281 279 278 278 278 279 281 282 281 281 281 280 280 280 279 279 278 279 279 280 280 279 279 278 278 278 278 278 278 278 278 278 278 278 278 278 278 278 278 276 276 274 275 276 276 275 276 275 274 273 274 275 276 273 271 272 271 272 272 273 273 272 270 268 266 265 265 264 262 261 261 261 262 262 262 262 262 263 262 263 262
282 284 277 281 279 277 276 278 278 278 280 280 280 280 282 282 280 279 278 278 278 278 278 278 278 278 278 278 277 277 278 278 278 278 278 278 278 278 279 279 279 279 278 278 276 276 277 276 276 276 276 277 277 275 273 273 274 272 273 271 268 270 272 272 269 269 267 266 266 264 264 264 263 262 261 260 260 261 262 262 262 263 263 263 265 265
281 278 279 280 276 277 278 277 278 277 276 279 280 282 281 281 281 280 279 279 279 278 277 277 278 278 277 277 279 278 279 278 278 278 278 278 279 278 278 278 278 278 277 277 276 275 275 275 276 276 276 277 274 274 274 273 273 270 270 269 266 269 271 270 268 267 267 266 266 264 263 263 262 262 262 261 260 260 260 265 267 265 263 263 268 271
280 281 280 278 279 277 280 280 281 282 281 281 283 282 282 282 281 280 280 279 278 278 278 277 277 277 277 278 278 279 278 279 279 278 278 278 278 279 279 278 278 277 278 276 276 275 275 276 275 273 273 275 272 274 274 273 270 269 268 269 268 268 268 268 268 267 266 265 265 265 263 263 262 262 262 261 261 260 261 259 264 270 271 270 269 271
Wind_Speed
4 4 4 6 8 7 7 9 10 8 7 4 1 3 5 5 4 5 3 1 0 1 6 6 6 7 8 5 11 9 7 5 5 6 6 5 6 6 6 6 6 5 6 5 5 4 4 4 3 3 3 3 4 4 4 4 4 5 5 6 7 6 6 6 5 5 6 7 8 9 10 9 8 8 9 10 9 10 9 10 10 10 9 10 10 10
1 5 8 9 8 7 8 10 10 8 9 3 3 4 5 2 6 4 2 3 1 1 2 3 5 8 7 6 6 6 7 8 9 8 8 7 7 6 7 7 6 7 5 6 5 5 5 4 4 3 3 3 5 4 4 4 4 5 5 6 6 6 7 7 7 7 8 7 6 8 7 8 7 8 9 9 8 9 9 10 10 9 9 10 10 10
4 9 9 10 7 7 6 3 3 7 6 4 3 2 4 6 4 5 4 2 1 2 6 5 8 9 8 7 4 13 13 10 11 10 10 9 8 7 6 7 7 7 6 6 6 5 4 4 4 4 4 4 4 4 3 3 4 4 5 6 6 6 6 7 7 8 8 7 7 8 7 9 9 8 8 8 8 8 10 10 10 10 10 10 10 10
5 7 12 9 7 8 3 3 1 1 2 2 3 3 6 3 3 3 1 0 2 1 2 3 9 10 9 9 8 11 10 4 2 2 2 5 9 7 7 7 8 7 8 7 7 7 6 5 5 4 5 4 4 4 4 3 4 5 5 6 7 7 6 7 8 9 9 11 10 10 10 10 10 9 8 9 10 10 11 12 10 10 9 10 10 10
11 2 4 10 9 5 5 4 3 3 5 4 6 5 4 4 5 6 3 4 4 4 3 5 8 11 8 11 11 3 3 5 1 4 2 4 3 4 5 5 6 7 8 8 8 7 7 6 5 5 5 5 5 4 3 3 4 4 6 6 7 7 7 7 9 12 11 12 11 10 9 8 9 8 8 9 10 9 8 9 10 9 8 9 9 9
11 7 1 5 7 5 4 4 5 4 5 5 6 9 7 6 6 5 4 4 3 3 4 5 4 4 7 14 11 6 2 3 3 4 3 3 1 5 5 6 5 6 5 7 8 8 7 6 6 6 5 5 5 4 3 3 4 4 6 6 6 7 7 8 7 9 9 8 8 7 7 9 9 9 8 9 8 7 8 8 5 8 8 8 8 8
4 2 6 5 5 4 5 5 4 7 5 3 3 2 9 7 4 2 4 3 4 3 2 1 3 8 3 6 2 5 6 6 4 7 7 7 6 5 5 5 5 7 8 6 7 7 8 7 6 6 6 5 6 4 2 3 4 5 5 5 5 5 4 4 5 5 4 5 6 7 8 8 9 11 6 6 6 7 6 6 7 7 7 7 8 8
5 2 2 2 4 5 4 6 4 8 4 4 1 3 2 0 0 1 1 3 5 2 2 3 3 7 13 7 3 7 7 7 7 8 8 9 9 9 8 8 7 7 7 8 8 8 7 7 7 7 6 6 5 4 4 4 4 5 5 5 5 4 4 4 6 8 8 9 9 9 9 9 8 9 10 7 7 6 6 8 7 7 7 8 8 8
4 5 5 5 5 5 8 6 4 8 4 1 1 3 2 2 0 1 1 3 3 3 6 5 4 3 7 2 9 11 5 7 12 12 11 10 10 11 10 11 10 8 7 8 9 9 9 8 7 7 6 5 5 4 4 4 4 5 5 6 5 6 5 5 7 8 8 8 9 9 10 11 8 9 8 7 6 7 6 7 6 7 7 7 7 7
2 2 5 8 6 7 2 2 2 7 7 1 2 4 3 2 1 1 1 1 3 2 10 6 7 6 15 3 2 1 3 9 11 13 13 12 12 12 12 11 12 10 8 7 8 8 7 7 7 7 6 6 4 4 5 4 4 5 5 6 6 6 6 6 7 8 8 8 8 10 10 13 10 8 8 7 7 6 6 8 7 7 7 6 6 7
2 3 2 1 4 1 4 3 4 3 3 5 4 4 2 1 1 1 1 0 3 8 12 7 10 7 9 2 9 8 8 11 8 3 6 9 9 10 9 12 11 11 10 9 9 8 8 6 7 7 7 6 5 4 5 5 5 5 5 6 7 6 6 6 7 7 9 8 8 10 10 11 12 10 9 9 8 7 6 8 7 6 6 6 6 6
2 2 0 1 4 4 3 3 4 2 2 6 2 3 2 0 2 0 1 1 2 11 3 13 10 13 9 3 5 9 2 7 9 10 13 13 13 12 10 10 11 11 10 10 10 9 9 8 6 6 7 6 5 5 5 4 5 5 5 7 8 6 6 6 6 8 8 8 8 8 9 11 9 9 8 9 9 7 7 6 7 6 6 6 6 6
6 4 2 2 5 5 3 4 1 1 1 2 4 4 6 2 2 2 2 4 8 10 1 1 9 5 17 10 4 2 2 3 4 10 15 15 13 13 11 12 10 10 9 10 10 9 9 9 9 8 8 7 6 6 5 5 5 5 6 7 9 7 6 6 7 8 8 8 8 8 8 8 8 9 9 8 8 6 7 6 6 6 6 6 6 6
5 5 8 5 1 6 7 9 3 1 6 6 7 8 5 3 4 4 4 4 4 4 2 0 2 6 2 5 15 20 2 2 3 7 11 15 16 15 13 12 11 10 10 9 9 9 9 9 8 7 8 7 7 7 7 6 6 6 6 6 8 7 6 6 7 8 8 7 7 7 8 8 8 8 8 7 8 7 7 7 7 7 6 6 6 5
4 2 8 9 6 9 12 14 13 5 8 11 5 9 9 8 2 3 6 8 5 2 0 2 4 6 5 6 3 3 3 3 4 5 9 10 11 10 10 10 10 11 9 9 9 10 10 10 8 8 8 7 7 8 7 6 6 6 7 7 8 8 7 7 7 7 9 8 8 7 7 8 7 8 8 8 7 7 8 7 7 7 6 6 5 5
13 7 2 16 1 12 14 8 4 6 3 5 5 2 4 9 1 9 1 0 1 2 2 1 5 2 5 0 1 0 4 4 4 5 9 9 10 11 11 12 12 11 11 10 9 9 8 8 7 8 7 7 8 7 6 6 7 7 7 7 7 9 8 8 8 7 8 8 7 7 8 8 9 8 8 7 7 7 7 7 7 7 6 6 5 4
2 5 4 4 3 12 11 5 6 9 5 5 5 9 9 1 5 5 2 1 1 2 10 4 5 6 3 1 2 2 4 2 1 3 8 10 11 12 11 12 12 12 12 11 11 10 10 8 7 8 7 8 8 8 7 7 7 8 9 9 8 8 7 8 7 8 7 8 8 8 8 8 8 8 8 8 8 8 7 6 6 6 6 5 4 4
7 3 2 3 4 1 1 1 2 2 1 7 5 6 3 4 3 2 5 0 2 8 8 8 9 3 3 8 4 4 4 3 4 4 7 8 10 13 11 12 13 14 12 10 9 8 9 9 9 8 7 7 8 9 8 8 6 7 8 9 10 9 10 7 8 8 8 9 9 8 8 8 8 8 7 7 7 7 8 6 5 5 6 5 4 4
2 4 3 1 3 2 3 1 1 1 3 3 5 1 9 3 4 3 2 8 4 7 5 3 7 8 11 9 3 6 8 9 9 7 7 11 11 12 11 11 10 9 10 12 12 11 11 11 11 10 9 8 8 8 7 7 7 7 6 7 9 10 9 9 7 7 7 7 7 7 8 8 8 7 7 6 6 6 6 6 6 5 5 5 4 5
2 5 1 2 1 1 1 4 8 5 2 1 0 2 2 2 1 6 9 1 3 7 1 7 7 10 8 7 14 14 15 13 11 10 12 14 15 13 13 13 14 15 14 14 13 12 12 11 11 11 11 11 11 9 8 7 7 8 8 8 7 7 7 8 8 8 9 7 8 9 8 7 7 7 7 6 7 7 6 5 5 5 5 5 5 4
3 2 5 1 4 5 3 6 10 13 12 3 1 3 1 1 0 2 2 6 4 3 4 6 9 3 2 3 14 14 15 13 17 17 13 12 14 13 13 15 15 15 15 14 14 13 13 12 11 9 8 8 7 6 7 7 9 8 8 8 8 11 9 9 8 8 8 9 9 9 8 8 8 7 7 7 6 6 5 5 5 5 5 5 5 4
3 4 9 3 1 6 5 6 13 11 15 14 15 14 15 11 6 5 9 2 4 4 6 3 13 2 2 2 3 10 10 11 14 16 15 13 13 14 13 14 15 15 14 14 14 12 12 11 10 8 7 6 8 8 9 8 7 7 8 8 8 8 8 9 8 8 8 7 9 8 9 8 7 7 7 7 6 6 5 5 6 5 5 5 4 4
6 2 2 6 8 9 7 1 1 1 1 4 7 6 8 6 4 5 10 5 1 7 1 2 4 9 2 2 2 3 2 8 12 11 12 12 13 14 13 13 13 14 15 15 15 13 12 11 11 11 11 11 11 10 9 8 8 8 8 8 7 9 8 8 8 7 8 9 9 8 8 8 8 7 7 7 6 6 6 5 5 5 6 5 4 4
8 3 4 6 3 2 2 2 0 0 0 1 3 1 6 12 15 13 7 2 5 2 3 2 6 6 1 3 2 1 2 2 6 10 11 10 10 10 11 12 13 12 10 9 9 9 10 10 10 10 12 12 11 11 11 9 7 7 7 8 8 10 9 8 8 8 8 8 8 8 8 8 8 8 7 7 6 7 6 6 5 4 5 5 4 5
4 3 5 2 3 1 1 1 2 2 1 3 4 9 10 7 7 4 1 2 2 10 7 7 16 5 2 0 1 1 3 4 4 6 9 9 6 9 10 10 11 11 11 12 13 13 11 12 14 15 13 13 11 10 10 10 10 9 9 8 10 9 9 8 8 9 8 9 10 9 9 8 8 8 7 7 7 7 7 6 6 4 5 5 4 4
8 7 11 10 14 14 11 10 10 8 12 5 3 6 9 13 12 8 9 10 10 9 9 8 14 3 2 1 1 1 1 2 1 3 5 9 11 10 7 8 10 11 13 14 13 12 16 16 14 12 12 11 11 12 12 11 11 10 9 10 8 10 9 9 8 9 10 9 10 10 9 9 8 8 8 8 7 8 7 7 6 5 4 4 5 4
4 5 12 16 16 16 14 1 1 9 4 9 12 14 15 12 11 8 5 5 16 5 7 19 14 4 4 4 4 4 4 5 5 4 5 7 7 8 8 10 11 12 13 16 16 14 9 9 14 15 13 12 12 12 12 12 11 11 10 10 9 9 10 10 10 9 10 9 9 10 9 9 9 9 8 8 8 7 7 7 6 5 5 4 4 4
2 2 14 15 15 17 6 4 2 13 13 15 12 14 14 14 15 14 13 18 5 3 17 14 6 13 11 6 7 6 5 4 5 6 5 4 9 12 11 7 8 7 7 7 8 11 16 18 15 14 14 13 13 12 11 11 11 12 12 12 10 10 10 9 10 10 10 10 10 10 10 10 8 8 8 7 7 7 7 7 6 5 4 4 4 4
6 10 11 10 17 18 6 4 4 3 4 5 13 14 16 17 15 19 21 18 8 13 22 5 14 15 12 10 11 10 9 10 11 12 11 7 5 6 9 10 10 10 9 13 15 16 16 15 16 16 16 16 14 14 14 13 12 11 10 10 11 11 12 11 11 11 11 10 11 10 9 8 7 8 8 8 8 9 8 7 6 5 5 4 3 4
1 7 4 8 16 14 14 12 4 4 3 1 5 12 15 18 22 23 23 21 17 16 20 6 6 10 3 7 11 11 8 8 4 5 7 9 9 9 9 9 10 10 12 14 16 17 17 17 15 15 14 13 16 16 14 14 14 14 14 13 12 12 11 11 11 12 11 11 11 9 9 9 8 8 8 9 9 9 8 8 7 7 5 4 3 3
7 8 9 5 8 14 14 11 7 6 4 9 7 7 12 16 18 20 20 19 16 18 22 13 9 16 4 2 5 1 4 7 7 8 8 7 9 9 9 9 9 10 12 13 13 14 13 13 13 12 13 15 17 18 17 15 14 12 12 13 14 13 13 12 12 12 12 11 9 9 9 9 8 9 9 8 8 7 8 8 7 6 5 4 4 4
4 4 3 4 9 14 9 10 10 4 2 7 14 16 16 8 10 15 17 16 14 21 21 16 15 18 3 4 4 3 4 7 8 7 7 7 7 8 8 9 10 11 12 13 13 12 12 13 15 16 18 18 18 17 15 14 14 15 15 15 15 14 12 12 12 13 12 11 10 10 11 10 10 10 9 8 8 8 7 7 7 6 5 5 4 4
7 5 6 6 10 15 3 9 8 5 1 7 19 29 17 11 12 12 13 14 18 17 13 15 21 11 7 6 7 1 2 3 4 5 4 4 6 9 10 11 12 11 13 12 11 13 15 17 18 19 18 15 14 15 17 16 14 16 16 16 15 13 13 13 13 12 12 11 12 12 12 11 12 10 9 9 8 8 7 8 7 6 6 7 5 4
4 6 6 3 5 4 2 5 6 6 10 17 6 3 14 18 19 15 18 19 15 14 15 12 5 3 7 7 10 8 6 5 5 7 4 7 8 7 8 10 12 12 10 9 11 13 13 11 10 12 13 14 14 14 12 13 15 13 11 11 10 13 13 13 12 12 12 12 12 12 11 12 11 10 10 8 8 8 8 8 8 6 5 5 5 6
11 9 9 5 5 5 4 8 5 12 18 1 5 5 2 16 18 21 18 11 14 14 12 11 4 6 6 6 6 5 4 4 2 4 3 4 8 10 12 12 9 8 10 10 10 9 10 11 11 10 10 12 13 12 12 12 12 11 11 12 13 12 13 13 12 12 12 13 11 11 10 12 10 10 9 9 9 8 8 8 7 7 7 7 7 7
11 12 5 4 4 3 4 8 7 8 1 2 3 3 2 2 6 8 13 13 10 12 13 14 13 5 5 4 2 1 4 4 1 2 3 5 8 10 8 7 8 9 9 8 9 10 11 12 13 13 13 9 10 11 13 13 11 12 13 11 12 12 12 13 13 13 12 11 10 12 12 12 11 10 9 10 9 9 9 8 9 9 7 6 5 4
11 8 7 7 5 8 5 11 11 5 5 2 1 1 5 5 7 11 11 14 14 10 9 9 10 6 5 5 5 3 3 2 2 7 2 5 4 3 5 6 6 6 6 6 8 8 7 6 7 7 7 9 11 12 12 11 12 12 11 12 12 12 11 11 12 13 13 12 13 14 13 13 12 11 11 11 11 10 10 10 8 7 6 6 7 7
0 11 6 9 5 6 5 4 3 3 13 5 4 4 1 2 4 6 5 5 1 7 8 10 11 8 6 4 5 4 4 1 5 8 7 5 4 4 2 3 3 4 4 4 3 4 5 5 5 6 9 9 10 11 11 11 12 12 12 12 11 11 11 11 14 14 13 13 12 13 13 13 13 13 12 11 13 12 10 8 5 7 8 9 9 8
4 2 2 8 2 6 3 6 7 9 4 4 3 1 1 1 7 5 4 6 2 2 6 8 11 7 7 8 5 5 5 5 9 8 3 7 5 4 5 3 4 4 4 5 7 6 5 6 7 7 7 9 9 8 9 10 12 11 11 10 10 11 11 14 14 13 13 14 13 13 12 11 12 12 13 13 13 11 11 11 10 7 7 6 5 6
3 2 3 2 5 4 6 5 8 2 1 2 4 1 2 0 6 5 3 6 1 4 2 3 7 4 6 7 9 8 8 8 9 3 1 2 4 4 5 6 5 5 4 4 4 5 5 6 6 6 8 9 9 7 9 9 10 10 10 9 9 10 13 14 14 12 11 12 11 10 10 10 12 12 13 13 10 9 9 7 7 8 8 6 6 6
3 2 4 7 4 5 6 4 2 3 1 1 4 3 2 1 3 5 7 3 2 1 1 2 2 3 6 8 8 7 6 2 2 3 3 5 7 4 4 4 4 5 5 5 5 6 5 5 7 8 8 6 7 7 8 8 9 9 8 8 9 12 13 12 11 11 12 9 8 9 10 10 12 13 11 10 10 9 8 8 8 8 8 7 6 6
1 3 0 2 4 6 4 4 4 2 2 4 1 4 3 4 4 7 1 0 4 4 1 2 4 4 6 9 7 4 3 3 4 4 4 4 5 5 5 6 6 5 3 3 5 5 5 4 4 5 5 5 8 8 8 9 9 8 8 8 11 13 13 11 9 8 7 9 10 10 10 10 9 8 9 7 9 9 8 6 7 7 8 6 6 7
8 7 6 7 3 2 1 4 1 6 2 5 7 3 2 5 4 4 4 2 1 4 4 1 4 4 6 5 3 4 5 4 5 5 5 5 5 5 5 5 6 6 6 4 3 3 5 5 5 5 5 4 6 6 6 9 10 8 8 11 14 13 8 6 6 7 8 8 9 10 10 9 10 9 8 8 9 10 9 8 8 7 7 7 6 7
3 5 3 3 4 5 7 7 6 4 6 7 10 8 5 4 2 6 7 4 2 3 4 3 2 5 5 6 6 4 4 6 4 5 5 5 4 4 4 4 4 4 3 2 4 5 5 5 4 5 4 4 5 5 6 10 10 8 9 13 13 5 5 5 6 7 8 9 9 8 8 8 8 7 7 9 9 9 9 8 7 7 7 7 7 7
8 8 3 6 5 6 5 3 2 2 8 6 1 1 3 3 3 1 4 7 7 3 3 4 5 4 5 5 5 6 3 2 4 4 5 4 5 5 5 5 5 5 5 5 4 4 4 6 7 6 5 4 5 5 6 6 10 9 11 11 5 6 8 7 7 8 8 8 8 8 7 6 7 7 7 8 9 10 9 8 8 8 6 7 6 7
3 2 1 4 2 2 2 2 3 2 6 3 1 1 4 4 1 3 6 4 2 4 6 5 4 4 4 5 7 2 4 4 5 3 4 4 4 4 3 3 3 4 4 4 3 5 4 4 5 6 6 4 5 5 5 6 7 10 12 3 5 5 6 7 7 8 9 7 7 7 8 8 6 6 6 7 7 8 8 10 10 9 8 7 7 7
2 2 1 3 3 6 6 3 4 7 5 3 3 1 3 2 2 1 3 3 4 5 4 3 5 5 5 5 5 5 5 5 5 3 3 4 4 5 5 5 4 5 7 7 6 6 5 5 5 5 5 6 5 5 5 6 7 9 2 3 5 6 6 7 8 7 6 7 7 6 8 10 8 7 6 6 6 6 7 7 8 8 9 9 9 8
3 4 2 4 2 4 1 4 1 1 1 1 3 5 3 2 1 1 3 3 4 4 4 4 6 5 4 4 5 6 5 5 6 5 4 4 5 5 5 5 6 4 5 3 4 5 5 5 6 6 6 7 7 6 6 7 9 8 4 2 5 5 6 7 8 9 9 9 8 8 8 8 9 10 8 7 8 9 8 7 8 10 11 12 12 10
4 7 5 5 4 2 3 0 0 3 1 3 3 3 2 4 4 3 4 4 4 6 5 4 3 5 5 6 4 5 5 5 6 6 6 4 4 4 6 6 6 7 5 5 5 7 9 8 8 8 8 9 6 7 7 8 8 5 5 4 4 6 6 7 5 5 5 5 6 7 6 7 8 8 8 7 7 6 7 9 10 10 6 4 5 8
7 6 2 6 2 5 8 7 7 6 3 5 7 9 7 4 5 5 4 4 4 5 5 5 3 3 4 5 6 5 6 5 5 5 5 6 6 5 4 4 4 5 5 4 4 5 5 6 8 8 8 8 5 6 7 7 6 4 4 4 4 5 7 6 6 5 6 6 7 6 7 7 7 7 8 8 8 7 5 6 10 7 7 6 9 14
7 5 7 6 7 5 3 10 8 4 4 7 11 9 7 6 6 6 7 6 5 5 5 5 5 3 3 1 4 6 5 6 5 5 4 3 4 5 5 5 5 4 5 4 5 5 7 7 6 5 6 6 4 5 6 6 4 4 5 6 6 6 5 6 7 6 6 7 7 8 8 7 7 7 7 7 7 7 7 5 7 15 16 12 11 12
Wind_Direction
129 181 194 199 217 216 207 217 229 241 259 315 343 283 277 286 275 294 142 111 171 318 236 248 259 264 267 201 192 184 185 202 207 192 170 167 161 162 161 158 150 140 123 126 117 118 124 109 95 97 97 97 66 59 49 49 51 50 56 61 57 36 48 64 65 63 78 83 79 70 67 72 61 62 59 55 47 46 46 42 42 40 38 36 35 32
31 208 224 222 224 222 233 216 219 245 263 245 293 306 290 251 268 261 216 188 107 153 272 264 280 266 266 268 176 166 170 203 206 194 181 181 172 168 162 151 152 116 137 137 133 140 116 119 124 103 71 78 77 51 51 53 51 53 49 59 57 41 49 64 73 79 71 64 74 93 84 86 72 67 62 62 51 52 49 47 44 42 40 41 41 34
214 222 227 230 234 248 254 322 238 218 242 244 221 248 258 254 264 271 93 140 77 85 271 261 261 268 265 261 177 177 185 203 204 193 189 175 172 166 165 153 142 132 147 154 142 132 123 125 112 109 95 82 82 79 70 53 65 54 58 60 61 55 59 60 73 76 83 83 84 90 97 93 90 72 75 75 70 62 57 51 46 43 42 41 41 37
242 236 233 236 236 236 209 187 299 341 303 265 244 225 236 263 287 292 92 125 192 194 278 334 301 276 269 258 244 193 190 184 149 169 160 170 168 164 170 161 150 154 153 154 149 143 145 136 126 113 102 97 92 78 47 46 65 65 64 70 73 73 70 80 83 91 89 93 96 90 95 92 89 93 81 74 64 57 53 48 42 41 41 40 42 37
220 227 195 200 222 220 209 193 200 207 247 212 219 233 239 229 235 214 226 193 163 236 231 285 280 275 246 248 236 135 63 77 85 73 47 9 100 133 129 127 154 158 156 151 148 139 141 139 132 123 116 108 93 77 57 46 76 81 82 88 90 91 93 94 99 100 106 106 102 106 102 93 91 72 67 68 58 54 56 57 46 42 40 42 43 39
248 239 99 211 192 177 211 232 200 187 237 250 215 206 230 239 252 268 308 4 358 301 203 159 319 264 226 224 223 148 102 178 148 142 183 171 140 110 128 147 147 143 147 147 144 147 144 128 121 118 121 111 103 93 75 60 77 93 94 95 101 105 108 115 113 114 115 117 118 116 106 96 89 82 68 70 79 68 61 63 58 51 45 45 46 41
246 129 164 179 169 191 196 218 205 163 229 247 275 247 217 223 269 343 325 18 297 254 331 351 191 277 358 315 130 176 192 205 160 198 198 182 178 158 158 159 150 148 142 138 137 139 133 139 135 131 127 119 110 112 106 87 88 85 88 92 90 94 94 116 128 124 103 91 89 92 98 102 103 106 89 88 87 88 82 80 67 59 50 48 51 44
112 158 77 132 157 172 195 213 202 165 186 246 290 352 72 83 146 253 241 209 249 325 261 171 167 275 288 232 158 182 182 204 200 208 203 191 183 175 173 165 158 157 150 145 143 141 140 143 143 139 127 119 125 124 106 87 81 91 97 98 100 92 85 74 85 89 97 103 104 106 102 101 101 98 111 106 96 95 99 87 81 72 58 49 47 48
142 176 147 188 186 186 211 213 181 181 178 195 257 84 63 89 350 356 210 261 243 359 267 175 181 288 253 270 167 161 183 211 218 205 204 192 179 178 177 168 165 158 152 152 151 149 151 150 139 132 122 122 121 123 116 113 108 102 103 103 97 92 86 80 87 96 97 105 115 116 116 106 103 106 107 111 100 98 96 87 78 74 66 57 47 46
348 178 191 183 174 216 163 25 352 165 201 204 150 66 88 91 59 215 341 235 300 244 249 173 178 216 273 206 116 197 235 234 224 204 196 188 179 178 175 164 161 155 153 153 146 139 134 129 130 128 122 113 123 126 119 116 111 112 110 108 106 100 99 102 103 108 110 117 123 118 120 117 117 116 107 104 104 94 86 87 76 72 69 62 55 44
147 155 152 126 219 188 105 40 29 47 104 152 134 99 67 76 162 28 171 45 353 248 243 180 191 177 279 184 188 161 222 211 214 161 174 174 173 177 172 161 160 157 155 151 145 136 125 119 123 129 130 131 125 129 126 120 123 126 120 119 111 114 107 107 112 114 118 120 124 121 122 119 121 119 119 113 104 101 87 88 87 80 78 73 64 51
123 64 329 273 67 105 113 65 19 334 132 135 143 124 125 21 47 90 303 164 209 264 197 182 192 188 218 274 202 212 198 202 183 183 170 174 176 175 169 164 157 155 154 148 142 135 131 131 137 130 130 139 141 124 119 126 124 123 125 122 115 112 113 114 117 117 118 119 116 113 116 116 118 120 117 114 111 111 110 105 102 94 82 70 62 52
238 193 133 59 287 142 157 96 11 31 343 166 109 109 125 222 70 280 134 218 207 242 302 290 187 219 238 229 290 136 253 255 199 170 170 170 171 172 167 163 158 155 151 150 146 142 145 150 155 148 146 139 142 138 138 140 136 132 130 131 124 125 126 123 123 120 117 114 116 117 115 110 108 107 109 111 108 111 111 110 99 92 82 66 59 48
273 181 187 179 47 224 160 177 152 252 227 166 161 163 133 191 217 243 202 227 265 264 275 190 10 263 335 268 226 243 209 7 47 149 159 164 170 173 166 160 155 158 158 154 152 153 156 158 161 151 145 146 144 144 146 147 144 143 140 140 130 133 132 128 122 120 115 109 109 107 109 109 110 106 104 104 106 104 102 101 99 97 95 89 83 72
239 319 228 141 238 169 198 203 192 167 156 199 179 167 184 174 164 238 190 217 223 229 315 280 107 232 122 244 346 15 78 18 0 125 152 159 158 155 150 144 146 155 161 158 160 161 163 162 159 150 149 149 147 149 151 151 150 145 143 142 138 134 136 130 126 119 115 113 110 109 106 106 103 103 99 97 100 102 102 100 102 97 93 96 97 99
212 235 189 179 83 156 196 211 148 117 145 210 189 190 233 218 126 238 162 14 342 355 300 250 201 210 187 218 130 108 56 35 355 96 128 139 144 145 150 158 164 165 164 163 161 160 162 157 154 148 152 151 150 152 154 155 152 148 148 144 145 140 139 133 128 124 123 119 113 105 103 100 99 100 98 96 94 95 98 103 105 107 109 108 105 97
140 232 103 90 133 169 203 171 201 142 188 204 148 213 205 29 198 275 2 53 103 356 251 151 287 301 294 270 159 132 92 51 360 134 140 149 154 155 164 166 168 170 168 167 167 167 159 153 158 156 155 154 153 156 164 164 159 153 149 148 144 139 134 134 133 129 123 116 108 101 100 101 101 103 109 113 109 105 99 97 99 105 106 101 102 106
157 191 326 115 183 360 40 312 212 29 98 102 194 220 101 80 72 149 241 42 187 237 264 151 211 228 145 265 129 128 144 193 217 199 169 156 157 168 175 175 174 174 172 165 160 162 161 159 159 160 160 161 162 162 162 162 157 151 154 152 145 146 143 143 135 129 125 118 111 108 102 98 105 111 111 109 108 104 107 109 106 102 102 117 122 114
122 265 202 298 54 3 353 45 46 67 40 161 183 244 143 247 247 220 77 249 228 237 275 233 201 228 186 221 131 204 196 199 198 203 174 173 177 182 174 175 173 163 160 169 170 168 169 169 169 168 165 161 163 164 160 156 148 146 149 151 152 152 150 143 137 127 118 118 118 115 114 116 114 113 109 107 105 106 112 115 116 122 129 105 94 92
99 201 294 314 22 160 129 158 194 201 259 53 304 341 268 90 215 151 200 281 135 261 292 267 140 256 179 214 180 196 204 193 177 189 201 187 184 181 178 175 174 176 179 176 174 174 173 171 171 170 168 166 167 165 160 154 148 153 154 153 153 144 138 134 134 133 129 125 122 119 115 114 116 111 111 111 112 115 120 125 123 118 105 112 104 97
246 134 254 216 308 115 197 189 202 177 184 214 183 229 213 179 295 102 307 206 187 221 231 281 278 261 242 197 173 195 197 182 178 190 192 190 188 186 180 176 180 183 180 179 177 174 172 171 170 169 166 161 154 153 152 158 162 161 156 160 159 151 148 143 142 136 133 126 125 125 125 125 120 117 113 111 118 125 134 130 121 118 119 99 98 103
193 158 210 103 277 225 246 191 209 197 195 186 185 199 190 168 178 184 248 144 221 210 236 204 258 252 253 2 189 190 187 177 189 181 186 192 182 182 182 184 184 182 184 179 178 173 169 169 167 161 154 155 157 162 164 165 161 163 165 163 154 148 149 147 147 143 135 129 131 132 130 125 120 117 119 123 129 132 131 125 123 127 107 109 111 103
161 134 137 198 209 211 225 353 345 73 61 227 197 218 179 196 169 197 228 219 148 240 66 209 322 253 228 323 6 58 123 182 180 174 184 186 185 184 186 184 186 186 179 178 176 174 171 169 168 167 167 169 171 170 167 169 171 167 164 159 157 153 159 156 149 141 136 137 137 135 131 125 125 127 132 135 140 137 133 129 123 119 125 122 120 104
74 124 187 240 56 358 358 165 38 28 97 347 288 187 168 203 195 206 208 160 195 216 199 258 246 274 296 62 333 15 60 40 149 173 178 182 182 183 176 176 180 177 180 173 170 164 164 163 162 164 174 174 175 174 175 172 168 167 169 162 157 160 158 153 148 144 139 138 136 136 131 132 135 139 145 145 150 142 135 127 120 117 121 133 124 124
129 238 164 167 277 313 313 352 318 4 38 225 197 206 212 212 203 215 42 40 309 222 182 167 247 228 264 180 337 283 70 84 114 156 160 167 182 181 175 173 175 175 169 169 171 169 163 165 174 183 181 178 174 173 172 173 175 173 171 165 164 163 161 153 150 145 147 146 143 143 140 144 146 152 154 151 149 144 134 129 128 126 133 128 132 142
187 169 157 191 216 228 223 202 199 202 208 210 227 207 207 205 195 154 218 210 228 237 147 222 244 244 281 83 213 139 98 99 125 113 150 169 167 172 174 164 168 172 179 175 167 163 176 182 181 180 181 177 177 177 177 176 175 173 172 173 168 163 160 159 153 153 152 154 149 150 151 154 156 162 157 151 148 144 139 135 133 134 130 134 143 143
169 183 185 200 210 223 238 190 205 123 89 187 213 192 211 206 206 208 227 208 225 216 181 231 228 261 273 222 232 207 183 180 170 178 160 158 166 164 167 172 173 178 173 175 178 178 166 171 187 190 182 180 178 180 180 177 175 174 173 173 171 168 163 163 159 158 157 157 155 156 161 162 166 161 154 152 149 141 134 135 138 137 139 142 151 151
103 197 215 213 220 233 212 167 201 162 178 207 195 205 204 195 200 199 205 223 165 176 251 239 137 241 230 215 222 208 201 197 186 183 186 168 164 166 173 162 148 149 157 155 160 171 185 191 188 184 184 179 182 181 179 179 178 176 176 175 171 168 166 166 161 162 163 161 163 166 166 167 163 153 150 147 144 140 137 136 137 136 135 134 153 151
162 208 217 197 232 236 199 189 166 190 202 197 203 200 195 201 194 204 221 228 146 206 238 209 163 224 233 191 213 206 189 194 195 188 183 166 135 129 138 154 166 171 168 174 184 187 190 190 191 189 185 185 178 180 180 177 179 178 177 176 174 170 174 166 164 167 168 168 170 171 165 159 154 149 147 148 145 142 143 144 142 138 139 153 164 144
92 250 212 174 232 238 237 228 151 171 200 233 222 212 205 198 203 205 218 220 211 230 239 201 197 240 231 204 196 203 195 185 143 111 128 144 159 156 157 162 170 174 180 188 191 194 195 194 192 189 185 182 183 183 181 181 182 181 177 176 176 175 173 164 171 170 173 174 174 167 162 156 150 149 148 150 153 152 149 147 147 145 151 161 152 146
164 236 171 162 228 245 236 234 219 204 178 231 235 242 227 214 209 208 218 223 223 244 251 246 264 262 242 140 155 75 106 99 110 127 147 154 153 156 160 173 179 187 193 197 199 199 197 195 193 188 187 190 188 187 185 183 180 175 176 179 179 177 175 170 172 177 176 176 170 163 152 148 150 149 159 161 151 151 151 150 147 149 155 162 154 167
171 250 39 133 212 251 225 200 218 163 185 246 254 239 229 198 198 216 219 215 204 223 233 239 243 246 136 115 70 60 114 139 147 149 150 157 160 151 166 186 187 196 200 201 201 196 192 194 192 190 193 193 192 188 183 179 179 179 185 181 180 179 171 173 177 177 178 172 165 160 158 157 154 160 165 159 161 161 156 146 146 155 161 162 163 174
190 152 162 181 209 239 265 171 185 125 261 295 251 240 215 198 220 223 228 219 215 214 223 224 234 225 186 162 133 193 138 146 137 164 138 136 164 172 183 192 198 202 205 200 195 196 197 197 197 196 196 191 187 187 190 183 178 186 186 182 182 169 174 178 177 176 175 175 171 167 164 160 163 168 169 169 163 158 151 150 153 158 166 181 179 171
154 172 205 155 223 253 74 141 110 167 212 229 263 23 174 196 202 209 220 215 216 199 221 228 243 116 144 159 177 190 169 205 187 222 183 170 172 191 206 203 204 203 201 199 199 201 202 198 199 197 192 190 190 190 185 183 190 189 180 176 167 173 178 175 179 177 178 177 177 170 164 162 167 173 172 163 159 158 157 159 173 171 167 166 173 183
186 186 212 153 200 214 137 123 170 216 228 327 313 304 241 196 197 211 228 212 214 221 238 253 215 161 185 183 184 190 204 237 225 216 220 177 170 184 198 207 203 193 194 194 195 194 192 193 193 186 183 187 184 178 174 184 186 176 172 175 178 181 178 180 176 179 180 182 175 164 164 167 172 172 167 164 163 164 166 169 165 167 175 179 186 183
184 192 164 205 140 52 150 174 214 227 285 295 328 311 333 82 209 208 245 240 219 210 214 231 238 195 181 201 208 206 199 207 235 250 197 202 184 195 194 196 202 194 197 192 185 192 189 191 190 188 190 175 166 175 181 185 174 173 182 173 178 179 182 178 180 184 182 176 168 170 172 172 175 171 167 165 168 172 174 174 178 177 175 175 187 189
188 179 180 207 167 189 187 202 230 5 308 100 26 215 166 161 157 179 211 244 221 205 192 222 237 222 173 190 158 98 78 67 293 278 245 209 223 195 184 206 190 195 188 193 186 195 190 180 177 179 159 162 173 174 183 172 171 176 172 176 183 178 180 179 184 187 184 179 176 178 177 176 174 174 171 170 173 181 180 176 181 177 166 174 187 185
180 186 189 190 220 152 150 184 320 258 247 244 209 241 43 302 171 171 162 294 306 188 187 198 229 220 181 147 126 123 81 90 279 260 246 229 187 160 83 101 120 138 139 133 123 136 148 159 152 158 160 166 174 178 172 171 172 171 175 182 177 173 178 182 192 191 185 184 181 182 180 180 176 174 173 173 184 186 185 178 171 175 175 180 183 189
56 80 27 199 195 125 176 202 208 220 243 131 229 246 299 25 111 88 65 272 282 204 191 188 225 211 168 151 162 122 118 202 243 251 263 191 187 160 131 102 96 104 120 135 139 140 145 158 160 161 156 161 175 180 166 167 167 169 179 177 174 175 180 194 197 190 187 188 187 186 181 177 176 176 176 184 191 183 176 179 181 172 165 182 181 179
96 121 175 165 210 194 194 205 222 212 196 239 229 249 243 259 113 72 49 281 246 241 313 202 218 184 154 162 154 163 166 213 244 254 317 188 159 155 145 141 115 101 91 92 98 130 134 128 116 135 158 174 179 162 159 157 163 172 174 175 170 180 193 200 199 191 190 191 186 180 176 177 179 182 182 189 184 178 177 155 146 164 170 177 173 162
153 191 202 212 196 210 196 238 10 291 270 193 187 191 206 258 74 108 197 211 184 215 294 149 190 156 148 149 164 177 222 186 148 129 62 96 98 80 72 91 117 122 130 122 130 126 125 139 149 163 168 161 145 144 147 148 154 171 171 166 172 196 203 201 193 191 196 182 173 175 180 181 184 186 190 184 177 166 154 158 162 156 162 170 163 155
99 106 50 135 226 214 221 221 244 293 220 163 1 158 218 105 173 204 203 49 148 181 239 143 136 158 148 163 185 186 124 122 102 79 81 86 116 114 105 105 96 78 72 105 122 122 122 114 114 111 117 137 145 145 147 150 161 169 166 171 195 206 206 198 191 184 174 174 177 180 180 183 186 183 173 156 147 154 160 153 147 159 158 164 168 165
182 144 200 188 192 85 108 231 204 246 208 125 127 56 315 129 234 149 135 20 116 163 149 149 138 179 153 178 172 125 122 103 113 111 99 105 116 130 131 132 136 145 142 127 110 113 129 129 133 145 148 142 142 149 154 155 168 174 177 189 210 209 198 180 171 171 174 176 177 181 182 180 173 169 160 161 162 158 158 152 151 155 156 163 168 166
182 118 203 209 180 163 184 200 204 209 149 195 149 172 191 199 167 155 136 112 61 126 159 130 186 185 180 154 151 136 138 124 91 108 100 95 112 118 128 136 134 134 133 131 149 151 134 131 134 137 133 135 150 155 162 162 172 177 182 209 215 176 152 162 170 166 173 181 183 173 174 172 167 158 157 157 154 154 151 156 154 155 166 168 169 171
210 185 179 180 184 164 200 189 213 216 165 173 122 248 139 123 111 159 133 141 148 209 183 158 198 190 172 149 150 147 132 167 155 156 137 156 139 147 157 171 163 162 160 157 163 157 142 150 152 141 137 152 159 168 170 174 166 178 194 221 170 173 175 174 166 171 181 182 176 172 163 151 157 157 156 158 156 158 160 157 158 162 175 168 178 179
344 117 67 82 252 118 43 149 139 85 152 129 21 335 127 128 55 74 132 118 187 177 171 176 182 156 135 134 122 151 158 159 131 135 124 136 139 149 145 136 131 135 142 129 147 163 158 130 133 143 159 168 171 170 176 183 172 174 215 187 166 174 162 160 166 178 186 176 170 162 149 150 147 148 154 158 170 172 170 167 172 173 170 177 191 192
226 136 131 138 238 140 239 95 137 166 157 135 119 57 47 94 146 128 106 123 144 136 118 87 137 149 150 139 147 159 170 161 152 174 151 144 156 163 166 169 184 174 165 181 183 151 149 144 152 174 178 193 209 185 191 191 205 213 190 149 159 151 156 163 174 180 172 172 164 154 158 162 165 162 161 166 164 169 169 170 175 176 179 183 187 196
272 170 106 214 226 174 223 150 215 326 108 153 151 159 164 176 138 91 100 117 111 100 115 127 106 109 129 149 171 151 171 163 155 181 178 186 183 178 178 180 184 186 218 177 137 147 146 165 182 188 190 208 208 196 195 202 214 217 199 150 142 143 148 167 178 182 186 179 167 169 171 173 165 163 170 180 177 180 182 185 184 189 193 188 189 184
159 125 209 164 153 114 35 20 181 94 41 257 259 265 220 167 165 157 140 128 118 111 107 95 103 162 151 183 147 139 140 187 185 184 186 195 189 186 196 193 190 197 183 165 174 166 182 188 192 202 196 215 200 189 195 212 221 205 194 173 135 143 157 175 183 176 167 160 156 169 172 172 170 177 174 181 191 209 200 188 191 202 218 225 193 196
116 193 189 103 126 200 197 181 175 127 215 222 222 215 214 196 158 171 145 135 144 131 140 123 107 101 136 151 153 149 165 183 190 170 189 192 196 201 195 198 197 201 201 199 169 192 211 208 203 204 209 223 190 186 201 216 220 192 176 160 153 152 166 169 161 169 178 172 174 168 167 177 178 180 179 180 190 192 227 224 210 207 201 216 213 216
175 180 144 169 187 219 168 162 186 142 157 191 194 208 189 184 162 169 186 185 180 177 166 144 138 129 158 188 156 154 175 185 208 182 179 189 205 205 200 189 196 206 216 185 175 198 209 224 224 227 234 232 190 200 208 217 193 168 172 162 163 163 165 154 169 182 185 175 190 184 182 179 179 183 182 181 181 189 196 222 233 223 221 217 218 222